Austin, MN

9:40 AM CST on January 20, 2018 (GMT -0600)
Austin Municipal

Weather History for KAUM - January, 2014

Change the Weather History Date:

Saturday, January 25, 2014

  Actual Average Record
Temperature  
Mean Temperature 14 °F -  
Max Temperature 28 °F 21 °F 51 °F (2002)
Min Temperature 1 °F 9 °F -13 °F (1997)
Degree Days  
Heating Degree Days 50    
Moisture  
Dew Point -2 °F    
Average Humidity 63    
Maximum Humidity 92    
Minimum Humidity 41    
Precipitation  
Precipitation 0.01 in - - ()
Sea Level Pressure  
Sea Level Pressure 29.74 in    
Wind  
Wind Speed 18 mph (WNW)    
Max Wind Speed 26 mph    
Max Gust Speed 39 mph    
Visibility 9 miles    
Events Snow    
Averages and records for this station are not official NWS values.
T = Trace of Precipitation, MM = Missing Value Source: NWS Daily Summary

Daily Weather History Graph

Daily Weather History Graph

Search for Another Location

Airport or City:

Trip Planner

Search our weather history database for the weather conditions in past years. The results will help you decide how hot, cold, wet, or windy it might be!

Date:

Astronomy

Jan. 25, 2014 Rise Set
Actual Time 7:35 AM CST 5:13 PM CST
Civil Twilight 7:04 AM CST 5:44 PM CST
Nautical Twilight 6:29 AM CST 6:19 PM CST
Astronomical Twilight 5:55 AM CST 6:53 PM CST
Moon 2:06 AM CST (1/25) 12:14 PM CST (1/25)
Length of Visible Light 10h 40m
Length of Day
9h 38m
Waning Crescent, 34% of the Moon is Illuminated
Jan 25
Waning Crescent
Jan 30
New
Feb 6
First Quarter
Feb 14
Full
Feb 22
Last Quarter

Hourly Weather History & Observations

Time (CST) Temp. Windchill Dew Point Humidity Pressure Visibility Wind Dir Wind Speed Gust Speed Precip Events Conditions
12:14 AM 28.4 °F 15.8 °F 24.8 °F 86% 29.53 in 10.0 mi WNW 18.4 mph 24.2 mph N/A   Mostly Cloudy
12:34 AM 28.4 °F 14.1 °F 21.2 °F 74% 29.54 in 10.0 mi NW 24.2 mph 33.4 mph N/A   Mostly Cloudy
12:55 AM 28.4 °F 14.1 °F 19.4 °F 69% 29.53 in 10.0 mi WNW 24.2 mph 31.1 mph N/A   Overcast
1:14 AM 28.4 °F 14.7 °F 17.6 °F 64% 29.55 in 10.0 mi NW 21.9 mph 32.2 mph N/A   Overcast
1:34 AM 26.6 °F 12.4 °F 19.4 °F 74% 29.55 in 10.0 mi NW 21.9 mph 29.9 mph N/A   Overcast
1:55 AM 26.6 °F 11.4 °F 15.8 °F 64% 29.57 in 10.0 mi NW 25.3 mph 31.1 mph N/A   Mostly Cloudy
2:14 AM 24.8 °F 11.1 °F 12.2 °F 59% 29.59 in 10.0 mi NW 18.4 mph 26.5 mph N/A   Scattered Clouds
2:34 AM 21.2 °F 4.9 °F 10.4 °F 63% 29.61 in 10.0 mi NW 23.0 mph 28.8 mph N/A   Clear
2:55 AM 19.4 °F 3.2 °F 8.6 °F 63% 29.62 in 10.0 mi NW 20.7 mph 28.8 mph N/A   Clear
3:14 AM 17.6 °F -1.0 °F -0.4 °F 45% 29.64 in 10.0 mi NW 26.5 mph 35.7 mph N/A   Clear
3:34 AM 15.8 °F -2.3 °F -4.0 °F 41% 29.65 in 10.0 mi NW 23.0 mph 39.1 mph N/A   Clear
3:55 AM 12.2 °F -3.7 °F -2.2 °F 53% 29.67 in 10.0 mi NW 15.0 mph 23.0 mph N/A   Clear
4:14 AM 12.2 °F -6.3 °F -2.2 °F 53% 29.68 in 10.0 mi NW 20.7 mph 33.4 mph N/A   Clear
4:35 AM 10.4 °F -8.2 °F -2.2 °F 57% 29.68 in 10.0 mi NW 19.6 mph 31.1 mph N/A   Clear
4:54 AM 10.4 °F -8.2 °F -2.2 °F 57% 29.70 in 10.0 mi NW 19.6 mph 32.2 mph N/A   Clear
5:14 AM 8.6 °F -11.0 °F -4.0 °F 57% 29.71 in 10.0 mi NW 20.7 mph 29.9 mph N/A   Clear
5:35 AM 8.6 °F -10.5 °F -2.2 °F 62% 29.72 in 10.0 mi NW 19.6 mph 27.6 mph N/A   Clear
5:54 AM 6.8 °F -12.4 °F -4.0 °F 61% 29.73 in 10.0 mi NW 18.4 mph 24.2 mph N/A   Clear
6:14 AM 6.8 °F -12.4 °F -5.8 °F 56% 29.74 in 10.0 mi NW 18.4 mph 27.6 mph N/A   Clear
6:34 AM 6.8 °F -12.9 °F -7.6 °F 52% 29.76 in 10.0 mi NW 19.6 mph 29.9 mph N/A   Clear
6:54 AM 5.0 °F -16.7 °F -5.8 °F 61% 29.76 in 10.0 mi NW 23.0 mph 32.2 mph N/A   Clear
7:15 AM 3.2 °F -18.1 °F -7.6 °F 61% 29.78 in 10.0 mi NW 20.7 mph 27.6 mph N/A   Clear
7:34 AM 3.2 °F -18.6 °F -7.6 °F 61% 29.78 in 10.0 mi NW 21.9 mph 27.6 mph N/A   Clear
7:54 AM 3.2 °F -17.1 °F -7.6 °F 61% 29.80 in 10.0 mi NW 18.4 mph 25.3 mph N/A   Clear
8:15 AM 3.2 °F -16.5 °F -9.4 °F 56% 29.80 in 10.0 mi NW 17.3 mph 28.8 mph N/A   Clear
8:34 AM 3.2 °F -15.9 °F -7.6 °F 61% 29.81 in 10.0 mi NW 16.1 mph 26.5 mph N/A   Clear
8:55 AM 3.2 °F -17.6 °F -7.6 °F 61% 29.83 in 10.0 mi NW 19.6 mph 25.3 mph N/A   Clear
9:14 AM 1.4 °F -21.4 °F -7.6 °F 66% 29.84 in 10.0 mi NW 23.0 mph 29.9 mph N/A   Clear
9:34 AM 1.4 °F -21.9 °F -7.6 °F 66% 29.86 in 10.0 mi NW 24.2 mph 31.1 mph N/A   Clear
9:55 AM 1.4 °F -21.9 °F -7.6 °F 66% 29.86 in 10.0 mi NW 24.2 mph 34.5 mph N/A   Clear
10:14 AM 1.4 °F -22.3 °F -7.6 °F 66% 29.87 in 10.0 mi NW 25.3 mph 34.5 mph N/A   Clear
10:34 AM 3.2 °F -19.9 °F -7.6 °F 61% 29.87 in 10.0 mi NW 25.3 mph 32.2 mph N/A   Clear
10:55 AM 3.2 °F -19.0 °F -7.6 °F 61% 29.88 in 10.0 mi NW 23.0 mph 29.9 mph N/A   Clear
11:14 AM 3.2 °F -18.1 °F -7.6 °F 61% 29.88 in 10.0 mi NW 20.7 mph 31.1 mph N/A   Clear
11:34 AM 3.2 °F -17.1 °F -7.6 °F 61% 29.88 in 10.0 mi NW 18.4 mph 27.6 mph N/A   Clear
11:55 AM 3.2 °F -17.6 °F -7.6 °F 61% 29.88 in 10.0 mi NW 19.6 mph 27.6 mph N/A   Clear
12:14 PM 3.2 °F -18.1 °F -7.6 °F 61% 29.88 in 10.0 mi NW 20.7 mph 27.6 mph N/A   Clear
12:34 PM 3.2 °F -17.6 °F -7.6 °F 61% 29.87 in 10.0 mi WNW 19.6 mph 28.8 mph N/A   Clear
12:55 PM 3.2 °F -19.0 °F -7.6 °F 61% 29.86 in 10.0 mi WNW 23.0 mph 26.5 mph N/A   Clear
1:14 PM 3.2 °F -19.5 °F -7.6 °F 61% 29.86 in 10.0 mi WNW 24.2 mph 29.9 mph N/A   Clear
1:34 PM 5.0 °F -15.2 °F -7.6 °F 56% 29.86 in 10.0 mi NW 19.6 mph 28.8 mph N/A   Clear
1:55 PM 5.0 °F -16.7 °F -7.6 °F 56% 29.86 in 10.0 mi WNW 23.0 mph 26.5 mph N/A   Clear
2:14 PM 5.0 °F -16.2 °F -7.6 °F 56% 29.85 in 10.0 mi WNW 21.9 mph 27.6 mph N/A   Clear
2:34 PM 5.0 °F -12.3 °F -7.6 °F 56% 29.84 in 10.0 mi WNW 13.8 mph 23.0 mph N/A   Clear
2:55 PM 6.8 °F -12.9 °F -7.6 °F 52% 29.84 in 10.0 mi WNW 19.6 mph 25.3 mph N/A   Clear
3:14 PM 6.8 °F -11.3 °F -7.6 °F 52% 29.85 in 10.0 mi WNW 16.1 mph - N/A   Clear
3:35 PM 6.8 °F -10.0 °F -7.6 °F 52% 29.85 in 10.0 mi WNW 13.8 mph 21.9 mph N/A   Clear
3:54 PM 6.8 °F -11.8 °F -5.8 °F 56% 29.85 in 10.0 mi WNW 17.3 mph 20.7 mph N/A   Clear
4:14 PM 6.8 °F -10.7 °F -5.8 °F 56% 29.84 in 10.0 mi WNW 15.0 mph 20.7 mph N/A   Clear
4:35 PM 6.8 °F -7.8 °F -5.8 °F 56% 29.84 in 10.0 mi WNW 10.4 mph 18.4 mph N/A   Clear
4:54 PM 6.8 °F -6.9 °F -5.8 °F 56% 29.85 in 10.0 mi WNW 9.2 mph - N/A   Clear
5:14 PM 6.8 °F -7.8 °F -5.8 °F 56% 29.85 in 10.0 mi West 10.4 mph - N/A   Clear
5:35 PM 6.8 °F -6.9 °F -5.8 °F 56% 29.84 in 10.0 mi West 9.2 mph - N/A   Clear
5:54 PM 6.8 °F -4.8 °F -5.8 °F 56% 29.82 in 10.0 mi West 6.9 mph - N/A   Clear
6:14 PM 6.8 °F -5.9 °F -5.8 °F 56% 29.82 in 10.0 mi West 8.1 mph - N/A   Clear
6:35 PM 6.8 °F -5.9 °F -4.0 °F 61% 29.81 in 10.0 mi West 8.1 mph - N/A   Clear
6:54 PM 6.8 °F -3.5 °F -4.0 °F 61% 29.80 in 10.0 mi West 5.8 mph - N/A   Clear
7:15 PM 6.8 °F - -2.2 °F 67% 29.77 in 10.0 mi Calm Calm - N/A   Mostly Cloudy
7:34 PM 6.8 °F - -2.2 °F 67% 29.76 in 10.0 mi Calm Calm - N/A   Mostly Cloudy
7:54 PM 6.8 °F -0.1 °F -2.2 °F 67% 29.75 in 10.0 mi SSW 3.5 mph - N/A   Overcast
8:15 PM 6.8 °F -2.0 °F -0.4 °F 72% 29.75 in 10.0 mi SSW 4.6 mph - N/A   Overcast
8:34 PM 6.8 °F -2.0 °F -0.4 °F 72% 29.72 in 10.0 mi South 4.6 mph - N/A   Overcast
8:54 PM 6.8 °F -3.5 °F -0.4 °F 72% 29.71 in 10.0 mi South 5.8 mph - N/A   Overcast
9:15 PM 8.6 °F 0.1 °F 1.4 °F 73% 29.69 in 10.0 mi South 4.6 mph - N/A   Overcast
9:34 PM 8.6 °F -1.3 °F 1.4 °F 73% 29.65 in 10.0 mi SE 5.8 mph - N/A   Overcast
9:54 PM 8.6 °F -2.6 °F 1.4 °F 73% 29.62 in 3.0 mi SE 6.9 mph - N/A Snow Light Snow
10:15 PM 8.6 °F -1.3 °F 3.2 °F 79% 29.59 in 1.0 mi SE 5.8 mph - N/A Snow Snow
10:34 PM 8.6 °F -2.6 °F 5.0 °F 85% 29.57 in 1.2 mi SSE 6.9 mph - N/A Snow Light Snow
10:54 PM 8.6 °F -4.7 °F 6.8 °F 92% 29.56 in 0.8 mi South 9.2 mph - N/A Snow Snow
11:14 PM 8.6 °F -2.6 °F 5.0 °F 85% 29.55 in 0.8 mi South 6.9 mph - N/A Snow Snow
11:35 PM 8.6 °F -2.6 °F 6.8 °F 92% 29.53 in 0.8 mi SSE 6.9 mph - N/A Snow Snow
11:54 PM 8.6 °F -3.7 °F 6.8 °F 92% 29.50 in 0.8 mi SSE 8.1 mph - 0.01 in Snow Snow